Location: Round Knob
(37.2473°N, 88.7376°W)
Time: 12:31:12
(UTC+00:00)

NOSS 3-3 (C) - Pass Details

Date: 29 October 2020
Orbit: 827 x 1385 km, 63.5° (Epoch: 29 November)

Event Time Altitude Azimuth Distance (km) Brightness Sun altitude
Rises 23:21:58 0° 195° (SSW) 3,363 7.2 -5.1°
Reaches altitude 10° 23:24:24 10° 190° (S) 2,457 6.4 -5.6°
Maximum altitude 23:29:49 50° 115° (ESE) 1,119 4.1 -6.6°
Drops below altitude 10° 23:35:48 10° 42° (NE) 2,714 5.9 -7.8°
Sets 23:38:36 0° 37° (NE) 3,748 6.6 -8.3°
Enters shadow 23:38:42 - 37° (NE) 3,784 6.6 -8.3°
